TimePDT,TemperatureF,Dew PointF,Humidity,Sea Level PressureIn,VisibilityMPH,Wind Direction,Wind SpeedMPH,Gust SpeedMPH,PrecipitationIn,Events,Conditions,WindDirDegrees,DateUTC
12:53 AM,61.0,45.0,56,29.97,10.0,WSW,5.8,-,N/A,,Scattered Clouds,240,2013-05-09 07:53:00
1:53 AM,66.0,39.9,38,29.97,10.0,SW,5.8,-,N/A,,Scattered Clouds,230,2013-05-09 08:53:00
2:53 AM,62.1,44.1,52,29.98,10.0,SE,5.8,-,N/A,,Partly Cloudy,130,2013-05-09 09:53:00
3:53 AM,59.0,44.1,58,29.99,10.0,SSE,6.9,-,N/A,,Clear,150,2013-05-09 10:53:00
4:53 AM,57.0,45.0,64,30.00,10.0,SSE,6.9,-,N/A,,Partly Cloudy,160,2013-05-09 11:53:00
5:53 AM,57.9,45.0,62,30.02,10.0,ESE,4.6,-,N/A,,Scattered Clouds,110,2013-05-09 12:53:00
6:53 AM,59.0,46.0,62,30.04,10.0,SE,6.9,-,N/A,,Scattered Clouds,130,2013-05-09 13:53:00
7:53 AM,62.1,46.0,56,30.06,10.0,SSE,5.8,-,N/A,,Partly Cloudy,150,2013-05-09 14:53:00
8:53 AM,66.0,48.0,52,30.06,10.0,Variable,3.5,-,N/A,,Partly Cloudy,0,2013-05-09 15:53:00
9:53 AM,69.8,48.2,46,30.10,10.0,East,4.6,-,N/A,,Clear,80,2013-05-09 16:53:00
10:53 AM,73.0,46.9,39,30.06,10.0,ESE,3.5,-,N/A,,Clear,110,2013-05-09 17:53:00
11:53 AM,77.0,46.0,33,30.06,10.0,ESE,11.5,26.5,N/A,,Clear,110,2013-05-09 18:53:00
12:53 PM,81.0,39.0,22,30.05,10.0,West,3.5,-,N/A,,Partly Cloudy,270,2013-05-09 19:53:00
1:53 PM,82.9,32.0,16,30.03,10.0,North,6.9,-,N/A,,Partly Cloudy,10,2013-05-09 20:53:00
2:53 PM,84.9,27.0,12,30.02,10.0,NNW,6.9,-,N/A,,Partly Cloudy,340,2013-05-09 21:53:00
3:53 PM,84.0,28.0,13,30.01,10.0,NNW,5.8,-,N/A,,Partly Cloudy,330,2013-05-09 22:53:00
4:53 PM,84.9,28.0,13,30.00,10.0,Variable,3.5,-,N/A,,Partly Cloudy,0,2013-05-09 23:53:00
5:53 PM,84.0,30.9,15,29.99,10.0,SW,8.1,-,N/A,,Clear,230,2013-05-10 00:53:00
6:53 PM,82.0,35.1,18,29.99,10.0,WSW,9.2,18.4,N/A,,Clear,240,2013-05-10 01:53:00
7:53 PM,78.1,35.1,21,30.00,10.0,SW,6.9,-,N/A,,Clear,230,2013-05-10 02:53:00
8:53 PM,73.0,37.9,28,30.00,10.0,SW,8.1,-,N/A,,Partly Cloudy,230,2013-05-10 03:53:00
9:53 PM,68.0,39.9,36,30.02,10.0,SSW,4.6,-,N/A,,Partly Cloudy,200,2013-05-10 04:53:00
10:53 PM,64.9,37.9,37,30.03,10.0,SW,3.5,-,N/A,,Partly Cloudy,230,2013-05-10 05:53:00
11:53 PM,64.0,39.0,40,30.04,10.0,SW,5.8,-,N/A,,Partly Cloudy,230,2013-05-10 06:53:00